| time (UTC) | temp C | wind direction | speed KPH | gust KPH | rain 1hr cm | rain 24hr cm | rain mn cm | humidity % | barometer mb |
| 20260507141552 | 1 | 360 | 22.5 | 40.2 | 0.00 | 0.08 | 0.05 | 80 | 1016.6 |
| 20260507140054 | 1 | 360 | 25.7 | 35.4 | 0.00 | 0.08 | 0.05 | 84 | 1016.6 |
| 20260507134545 | 1 | 360 | 17.7 | 29.0 | 0.03 | 0.08 | 0.05 | 84 | 1016.3 |
| 20260507133002 | 1 | 360 | 22.5 | 32.2 | 0.03 | 0.08 | 0.05 | 80 | 1016.3 |
| 20260507131610 | 1 | 360 | 16.1 | 29.0 | 0.03 | 0.08 | 0.05 | 82 | 1016.2 |
| 20260507130053 | 1 | 360 | 16.1 | 24.1 | 0.03 | 0.08 | 0.05 | 84 | 1016.2 |
| 20260507124600 | 0 | 360 | 9.7 | 22.5 | 0.00 | 0.05 | 0.05 | 88 | 1016.1 |
| 20260507123056 | 0 | 360 | 12.9 | 19.3 | 0.00 | 0.05 | 0.05 | 91 | 1016.1 |
| 20260507121545 | 0 | 360 | 22.5 | 33.8 | 0.00 | 0.05 | 0.05 | 92 | 1016.3 |
| 20260507120050 | 0 | 360 | 14.5 | 30.6 | 0.00 | 0.05 | 0.05 | 94 | 1016.3 |
| 20260507114544 | 0 | 360 | 6.4 | 12.9 | 0.00 | 0.08 | 0.05 | 84 | 1016.1 |
| 20260507113044 | 0 | 360 | 9.7 | 14.5 | 0.00 | 0.08 | 0.05 | 85 | 1015.7 |
| 20260507111555 | 0 | 360 | 12.9 | 17.7 | 0.00 | 0.08 | 0.05 | 90 | 1015.5 |
| 20260507110058 | 0 | 360 | 16.1 | 33.8 | 0.00 | 0.08 | 0.05 | 94 | 1015.4 |
| 20260507104551 | 1 | 360 | 27.4 | 37.0 | 0.00 | 0.08 | 0.05 | 80 | 1015.6 |
| 20260507103055 | 1 | 360 | 17.7 | 29.0 | 0.00 | 0.08 | 0.05 | 77 | 1015.2 |
| 20260507101552 | 1 | 360 | 14.5 | 24.1 | 0.00 | 0.08 | 0.05 | 83 | 1015.0 |
| 20260507100048 | 1 | 360 | 16.1 | 24.1 | 0.00 | 0.08 | 0.05 | 81 | 1014.9 |
| 20260507094552 | 0 | 360 | 14.5 | 22.5 | 0.00 | 0.10 | 0.05 | 84 | 1014.7 |
| 20260507093059 | 1 | 360 | 16.1 | 24.1 | 0.00 | 0.10 | 0.05 | 83 | 1014.7 |
| 20260507091550 | 1 | 360 | 9.7 | 29.0 | 0.00 | 0.10 | 0.05 | 81 | 1014.7 |
| 20260507090052 | 1 | 360 | 4.8 | 25.7 | 0.00 | 0.10 | 0.05 | 81 | 1014.5 |
| 20260507084504 | 1 | 360 | 14.5 | 32.2 | 0.00 | 0.10 | 0.05 | 82 | 1014.3 |
| 20260507083045 | 1 | 360 | 14.5 | 27.4 | 0.00 | 0.10 | 0.05 | 84 | 1014.3 |
| 20260507081553 | 0 | 360 | 14.5 | 29.0 | 0.00 | 0.10 | 0.05 | 86 | 1014.3 |
| 20260507080108 | 0 | 360 | 14.5 | 25.7 | 0.00 | 0.10 | 0.05 | 87 | 1014.3 |
| 20260507074551 | 0 | 360 | 16.1 | 29.0 | 0.00 | 0.10 | 0.05 | 86 | 1014.2 |
| 20260507073051 | 0 | 360 | 17.7 | 25.7 | 0.00 | 0.10 | 0.05 | 84 | 1014.0 |
| 20260507071602 | 0 | 360 | 9.7 | 17.7 | 0.00 | 0.10 | 0.05 | 84 | 1013.9 |
| 20260507070047 | 0 | 360 | 11.3 | 17.7 | 0.00 | 0.10 | 0.05 | 86 | 1013.8 |
| 20260507064557 | 0 | 360 | 11.3 | 19.3 | 0.00 | 0.10 | 0.05 | 86 | 1013.6 |
| 20260507063103 | 0 | 360 | 6.4 | 16.1 | 0.00 | 0.10 | 0.05 | 88 | 1013.5 |
| 20260507061550 | 0 | 360 | 4.8 | 16.1 | 0.05 | 0.10 | 0.05 | 88 | 1013.4 |
| 20260507060056 | 0 | 360 | 1.6 | 11.3 | 0.05 | 0.10 | 0.05 | 91 | 1013.4 |
| 20260507054544 | 0 | 360 | 3.2 | 8.0 | 0.05 | 0.10 | 0.05 | 92 | 1013.3 |
| 20260507053111 | 0 | 360 | 3.2 | 8.0 | 0.05 | 0.10 | 0.05 | 91 | 1013.1 |
| 20260507051606 | 0 | 360 | 4.8 | 9.7 | 0.00 | 0.05 | 0.00 | 95 | 1013.1 |
| 20260507050057 | 0 | 360 | 3.2 | 9.7 | 0.00 | 0.05 | 0.00 | 94 | 1013.1 |
| 20260507044546 | 0 | 360 | 8.0 | 11.3 | 0.00 | 0.08 | 0.00 | 94 | 1013.1 |
| 20260507043053 | -1 | 360 | 4.8 | 9.7 | 0.00 | 0.08 | 0.00 | 98 | 1013.1 |
| 20260507041546 | -1 | 360 | 8.0 | 11.3 | 0.00 | 0.08 | 0.00 | 98 | 1013.1 |
| 20260507040045 | -1 | 360 | 3.2 | 8.0 | 0.00 | 0.08 | 0.00 | 99 | 1013.0 |
| 20260507034555 | -1 | 360 | 6.4 | 9.7 | 0.00 | 0.08 | 0.00 | 98 | 1012.9 |
| 20260507033100 | -1 | 360 | 3.2 | 8.0 | 0.00 | 0.08 | 0.00 | 97 | 1012.9 |
| 20260507031549 | 0 | 360 | 3.2 | 8.0 | 0.00 | 0.08 | 0.00 | 96 | 1012.8 |
| 20260507030046 | -1 | 360 | 3.2 | 6.4 | 0.00 | 0.08 | 0.00 | 96 | 1012.7 |
| 20260507024601 | -1 | 360 | 4.8 | 6.4 | 0.00 | 0.08 | 0.00 | 96 | 1012.5 |
| 20260507023059 | 0 | 360 | 0.0 | 9.7 | 0.00 | 0.08 | 0.00 | 95 | 1012.5 |
| 20260507021547 | 0 | 360 | 12.9 | 17.7 | 0.00 | 0.08 | 0.00 | 94 | 1012.4 |
| 20260507020045 | -1 | 360 | 6.4 | 9.7 | 0.00 | 0.08 | 0.00 | 97 | 1012.4 |
| 20260507014617 | -1 | 360 | 4.8 | 6.4 | 0.00 | 0.08 | 0.00 | 97 | 1012.3 |
| 20260507013055 | -1 | 360 | 4.8 | 9.7 | 0.00 | 0.08 | 0.00 | 97 | 1012.3 |
| 20260507011546 | -1 | 360 | 3.2 | 6.4 | 0.00 | 0.08 | 0.00 | 99 | 1012.2 |
| 20260507010104 | -1 | 360 | 8.0 | 12.9 | 0.00 | 0.08 | 0.00 | 98 | 1012.3 |
| 20260507004546 | -1 | 360 | 8.0 | 16.1 | 0.00 | 0.08 | 0.00 | 96 | 1012.2 |
| 20260507003046 | -1 | 360 | 4.8 | 9.7 | 0.00 | 0.08 | 0.00 | 94 | 1012.0 |
| 20260507001558 | -1 | 360 | 1.6 | 11.3 | 0.00 | 0.08 | 0.00 | 94 | 1012.0 |
| 20260507000045 | -1 | 360 | 8.0 | 12.9 | 0.00 | 0.08 | 0.00 | 95 | 1011.9 |
| 20260506234556 | -1 | 360 | 1.6 | 4.8 | 0.00 | 0.08 | 0.00 | 98 | 1011.8 |
| 20260506233059 | -1 | 360 | 1.6 | 4.8 | 0.00 | 0.08 | 0.00 | 97 | 1011.8 |
| 20260506231553 | 0 | 360 | 3.2 | 6.4 | 0.00 | 0.08 | 0.00 | 95 | 1011.7 |
| 20260506230053 | 0 | 360 | 0.0 | 4.8 | 0.00 | 0.08 | 0.00 | 95 | 1011.5 |
| 20260506224544 | 0 | 360 | 0.0 | 4.8 | 0.00 | 0.08 | 0.00 | 94 | 1011.4 |
| 20260506223050 | 0 | 360 | 6.4 | 8.0 | 0.00 | 0.08 | 0.00 | 94 | 1011.3 |
| 20260506221540 | 0 | 360 | 8.0 | 12.9 | 0.00 | 0.08 | 0.00 | 94 | 1011.2 |
| 20260506220047 | 0 | 360 | 11.3 | 14.5 | 0.00 | 0.08 | 0.00 | 93 | 1011.2 |
| 20260506214602 | 0 | 360 | 11.3 | 16.1 | 0.00 | 0.08 | 0.08 | 92 | 1011.1 |
| 20260506213052 | 0 | 360 | 9.7 | 14.5 | 0.00 | 0.08 | 0.08 | 92 | 1011.1 |
| 20260506211543 | 0 | 360 | 9.7 | 14.5 | 0.00 | 0.08 | 0.08 | 92 | 1011.0 |
| 20260506210044 | 0 | 360 | 14.5 | 16.1 | 0.00 | 0.08 | 0.08 | 93 | 1010.9 |
| 20260506204600 | 0 | 360 | 11.3 | 14.5 | 0.00 | 0.08 | 0.08 | 93 | 1010.9 |
| 20260506203042 | 0 | 360 | 9.7 | 12.9 | 0.00 | 0.08 | 0.08 | 95 | 1010.8 |
| 20260506201554 | 0 | 360 | 4.8 | 6.4 | 0.00 | 0.08 | 0.08 | 95 | 1010.9 |
| 20260506200106 | 0 | 360 | 4.8 | 9.7 | 0.00 | 0.08 | 0.08 | 96 | 1010.9 |
| 20260506194550 | 0 | 360 | 3.2 | 6.4 | 0.00 | 0.08 | 0.08 | 95 | 1010.8 |
| 20260506193054 | 0 | 360 | 3.2 | 4.8 | 0.00 | 0.08 | 0.08 | 94 | 1010.8 |
| 20260506191608 | 0 | 360 | 1.6 | 6.4 | 0.00 | 0.08 | 0.08 | 93 | 1010.7 |
| 20260506190040 | 0 | 360 | 6.4 | 9.7 | 0.00 | 0.08 | 0.08 | 92 | 1010.6 |
| 20260506184553 | 0 | 360 | 4.8 | 8.0 | 0.00 | 0.08 | 0.08 | 93 | 1010.6 |
| 20260506183053 | 0 | 360 | 4.8 | 6.4 | 0.00 | 0.08 | 0.08 | 94 | 1010.5 |
| 20260506181556 | 0 | 360 | 0.0 | 0.0 | 0.00 | 0.08 | 0.08 | 95 | 1010.5 |
| 20260506180104 | 0 | 360 | 0.0 | 0.0 | 0.00 | 0.08 | 0.08 | 96 | 1010.5 |
| 20260506174554 | 0 | 360 | 0.0 | 0.0 | 0.00 | 0.08 | 0.08 | 97 | 1010.5 |
| 20260506173119 | 0 | 360 | 0.0 | 1.6 | 0.00 | 0.08 | 0.08 | 97 | 1010.6 |
| 20260506171544 | 0 | 360 | 3.2 | 6.4 | 0.03 | 0.08 | 0.08 | 98 | 1010.5 |
| 20260506170002 | -1 | 360 | 4.8 | 8.0 | 0.03 | 0.08 | 0.08 | 99 | 1010.5 |
| 20260506164552 | -1 | 360 | 3.2 | 8.0 | 0.03 | 0.08 | 0.08 | 99 | 1010.6 |
| 20260506163058 | -1 | 360 | 6.4 | 8.0 | 0.03 | 0.08 | 0.08 | 99 | 1010.6 |
| 20260506161601 | -1 | 360 | 4.8 | 8.0 | 0.00 | 0.05 | 0.05 | 99 | 1010.6 |
| 20260506154549 | -1 | 360 | 6.4 | 9.7 | 0.00 | 0.05 | 0.05 | 99 | 1010.5 |
| 20260506153048 | -1 | 360 | 6.4 | 11.3 | 0.00 | 0.05 | 0.05 | 99 | 1010.4 |
| 20260506151501 | 0 | 360 | 8.0 | 12.9 | 0.00 | 0.05 | 0.05 | 98 | 1010.2 |
| 20260506144606 | 0 | 360 | 9.7 | 12.9 | 0.00 | 0.05 | 0.05 | 97 | 1010.0 |
| 20260506143058 | 0 | 360 | 8.0 | 12.9 | 0.00 | 0.05 | 0.05 | 95 | 1009.9 |